This is the latest recevied weather packets stored in our database for station/object WD9U. If no packets are shown the sender has not sent any weather packets the latest 10 day(s).
| Time | Temp. | Humidity | Pressure | Rain* | Wind** | Luminosity | Snow |
|---|---|---|---|---|---|---|---|
| 1778067911 | 1.67° C | 59% | 1014.2 hPa | 0 mm | - | 48 W/m² | - |
| 1778067789 | 1.67° C | 59% | 1014.3 hPa | 0 mm | - | 46 W/m² | - |
| 1778067429 | 1.67° C | 60% | 1014.2 hPa | 0 mm | - | 37 W/m² | - |
| 1778067069 | 1.67° C | 60% | 1014.2 hPa | 0 mm | - | 30 W/m² | - |
| 1778066709 | 1.67° C | 60% | 1014.1 hPa | 0 mm | - | 26 W/m² | - |
| 1778066349 | 1.67° C | 60% | 1014.2 hPa | 0 mm | - | 20 W/m² | - |
| 1778065988 | 1.67° C | 60% | 1013.9 hPa | 0 mm | - | 16 W/m² | - |
| 1778065628 | 1.67° C | 60% | 1014 hPa | 0 mm | - | 10 W/m² | - |
| 1778065511 | 2.22° C | 60% | 1014 hPa | 0 mm | - | 8 W/m² | - |
| 1778065268 | 2.22° C | 60% | 1013.9 hPa | 0 mm | - | 6 W/m² | - |
| 1778064908 | 2.22° C | 59% | 1013.9 hPa | 0 mm | - | 4 W/m² | - |
| 1778064548 | 2.22° C | 58% | 1013.9 hPa | 0 mm | - | 2 W/m² | - |
| 1778064320 | 2.22° C | 58% | 1013.8 hPa | 0 mm | - | 2 W/m² | - |
| 1778064187 | 2.22° C | 59% | 1013.8 hPa | 0 mm | - | 2 W/m² | - |
| 1778063827 | 2.22° C | 57% | 1013.9 hPa | 0 mm | - | 2 W/m² | - |
| 1778063467 | 2.22° C | 58% | 1013.9 hPa | 0 mm | - | 0 W/m² | - |
| 1778063107 | 2.22° C | 57% | 1013.9 hPa | 0 mm | - | 0 W/m² | - |
| 1778062747 | 2.22° C | 58% | 1013.9 hPa | 0 mm | - | 0 W/m² | - |
| 1778062387 | 2.22° C | 57% | 1013.9 hPa | 0 mm | - | 0 W/m² | - |
| 1778062028 | 2.22° C | 57% | 1013.9 hPa | 0 mm | - | 0 W/m² | - |
| 1778061921 | 2.22° C | 57% | 1013.9 hPa | 0 mm | - | 0 W/m² | - |
| 1778061667 | 2.22° C | 57% | 1013.8 hPa | 0 mm | - | 0 W/m² | - |
| 1778061307 | 2.22° C | 56% | 1013.7 hPa | 0 mm | - | 0 W/m² | - |
| 1778060947 | 2.22° C | 56% | 1013.8 hPa | 0 mm | - | 0 W/m² | - |
| 1778060720 | 2.22° C | 56% | 1013.7 hPa | 0 mm | - | 0 W/m² | - |
* Rain latest hour (hover to see other rain measurements)
** Current wind speed in m/s (hover to see current wind gust speed)